Hourly Data Report for October 17, 2013

All times are specified in Local Standard Time (LST). Add 1 hour to adjust for Daylight Saving Time where and when it is observed.

KITCHENER/WATERLOO
ONTARIO

43°27'39.000" N
80°22'43.000" W
321.60 m
6144239
71368
YKF

Download Data

Hourly Data (October 2013)
Hourly Data Report for October 17, 2013
Temp Definition
°C
Dew Point Temp Definition
°C
Rel Hum Definition
%
Wind Dir Definition
10's deg

Wind Spd Definition
km/h
Visibility Definition
km
Stn Press Definition
kPa
Hmdx Definition


Wind Chill Definition


Weather Definition


TIME
00:00 Legend Double Dagger 11.0 8.3 83 24 21 16.1 97.26     LegendNANA
01:00 Legend Double Dagger 10.3 8.1 86 25 18 16.1 97.29     LegendNANA
02:00 Legend Double Dagger 10.4 8.5 88 25 18 16.1 97.30     LegendNANA
03:00 Legend Double Dagger 10.3 8.9 91 25 11 6.4 97.29     LegendNANA
04:00 Legend Double Dagger 10.0 9.2 95 23 9 4.0 97.28     LegendNANA
05:00 Legend Double Dagger 9.8 8.9 94 30 9 2.4 97.32     LegendNANA
06:00 Legend Double Dagger 9.5 8.8 95   0 16.1 97.32     LegendNANA
07:00 Legend Double Dagger 9.5 8.9 96 LegendMM 4 4.8 97.33     LegendNANA
08:00 Legend Double Dagger 9.8 8.5 92   0 16.1 97.35     LegendNANA
09:00 Legend Double Dagger 10.3 8.5 89 LegendMM 4 16.1 97.36     LegendNANA
10:00 Legend Double Dagger 11.6 9.4 86 18 5 16.1 97.31     LegendNANA
11:00 Legend Double Dagger 12.9 9.3 79 22 9 16.1 97.28     LegendNANA
12:00 Legend Double Dagger 14.2 9.6 74 LegendMM 4 16.1 97.19     LegendNANA
13:00 Legend Double Dagger 14.2 8.5 68 23 13 16.1 97.09     LegendNANA
14:00 Legend Double Dagger 13.9 8.3 69 25 5 16.1 96.95     LegendNANA
15:00 Legend Double Dagger 13.7 8.3 70 24 5 16.1 96.91     LegendNANA
16:00 Legend Double Dagger 12.1 10.0 87 18 13 11.3 96.94     LegendNANA
17:00 Legend Double Dagger 10.8 9.9 94 20 18 8.1 96.89     LegendNANA
18:00 Legend Double Dagger 10.4 9.5 94 19 13 8.1 96.87     LegendNANA
19:00 Legend Double Dagger 10.2 9.0 92 23 15 12.9 96.88     LegendNANA
20:00 Legend Double Dagger 9.8 8.7 93 24 9 9.7 96.88     LegendNANA
21:00 Legend Double Dagger 9.6 8.7 94 26 13 4.0 96.87     LegendNANA
22:00 Legend Double Dagger 9.2 8.1 93 25 15 16.1 96.87     LegendNANA
23:00 Legend Double Dagger 9.1 7.9 92 24 18 11.3 96.86     LegendNANA

Notes on Data Quality.

Legend

  • E = Estimated
  • M = Missing
  • NA = Not Available
  • ‡ = Partner data that is not subject to review by the National Climate Archives
Date modified: